Riverside, CA

10:48 PM PDT on June 21, 2018 (GMT -0700)
Riverside Municipal

Weather History for KRAL - December, 2017

Change the Weather History Date:

Thursday, December 7, 2017

  Actual Average Record
Temperature  
Mean Temperature 66 °F 55 °F  
Max Temperature 74 °F 67 °F 90 °F (1938)
Min Temperature 58 °F 43 °F 22 °F (1998)
Degree Days  
Heating Degree Days 0 10  
Month to date heating degree days 27 66  
Since 1 July heating degree days 73 266  
Cooling Degree Days 1 0  
Month to date cooling degree days 1 0  
Year to date cooling degree days 2307 1754  
Growing Degree Days 14 (Base 50)    
Moisture  
Dew Point 7 °F    
Average Humidity 10    
Maximum Humidity 13    
Minimum Humidity 6    
Precipitation  
Precipitation 0.00 in 0.04 in 1.73 in (1992)
Month to date precipitation 0.00 0.26  
Year to date precipitation 8.49 11.13  
Sea Level Pressure  
Sea Level Pressure 30.27 in    
Wind  
Wind Speed 11 mph (NE)    
Max Wind Speed 21 mph    
Max Gust Speed 36 mph    
Visibility 10 miles    
Events      
T = Trace of Precipitation, MM = Missing Value Source: NWS Daily Summary

Daily Weather History Graph

Daily Weather History Graph

Search for Another Location

Airport or City:

Astronomy

Dec. 07, 2017 Rise Set
Actual Time 6:42 AM PST 4:40 PM PST
Civil Twilight 6:14 AM PST 5:08 PM PST
Nautical Twilight 5:43 AM PST 5:39 PM PST
Astronomical Twilight 5:13 AM PST 6:09 PM PST
Moon 9:27 PM PST (12/7) 10:29 AM PST (12/7)
Length of Visible Light 10h 53m
Length of Day
9h 58m
Waning Gibbous, 77% of the Moon is Illuminated
Dec 7
Waning Gibbous
Dec 9
Last Quarter
Dec 17
New
Dec 26
First Quarter
Jan 1
Full

Hourly Weather History & Observations

Time (PST) Temp. Dew Point Humidity Pressure Visibility Wind Dir Wind Speed Gust Speed Precip Events Conditions
12:53 AM 62.1 °F 10.9 °F 13% 30.22 in 10.0 mi SSE 8.1 mph - N/A   Clear
1:53 AM 64.0 °F 10.0 °F 12% 30.23 in 10.0 mi Variable 3.5 mph - N/A   Clear
2:53 AM 63.0 °F 8.1 °F 11% 30.23 in 10.0 mi ENE 10.4 mph 21.9 mph N/A   Clear
3:53 AM 64.0 °F 7.0 °F 11% 30.22 in 10.0 mi NE 13.8 mph 24.2 mph N/A   Clear
4:53 AM 63.0 °F 6.1 °F 11% 30.23 in 10.0 mi NE 11.5 mph 17.3 mph N/A   Clear
5:53 AM 62.1 °F 8.1 °F 12% 30.26 in 10.0 mi ENE 10.4 mph - N/A   Clear
6:53 AM 62.1 °F 6.1 °F 11% 30.29 in 10.0 mi Variable 3.5 mph 17.3 mph N/A   Clear
7:53 AM 64.0 °F 6.1 °F 10% 30.30 in 10.0 mi NNE 12.7 mph 28.8 mph N/A   Clear
8:53 AM 66.9 °F 3.9 °F 8% 30.31 in 10.0 mi NNE 11.5 mph 27.6 mph N/A   Clear
9:53 AM 69.1 °F 3.0 °F 7% 30.30 in 10.0 mi NNE 15.0 mph 35.7 mph N/A   Clear
10:53 AM 71.1 °F 1.9 °F 7% 30.27 in 10.0 mi NNE 18.4 mph 32.2 mph N/A   Clear
11:53 AM 73.0 °F 1.9 °F 6% 30.25 in 10.0 mi NNE 10.4 mph 27.6 mph N/A   Clear
12:53 PM 73.0 °F 1.9 °F 6% 30.22 in 10.0 mi North 13.8 mph 31.1 mph N/A   Clear
1:53 PM 73.9 °F 3.0 °F 6% 30.22 in 10.0 mi NNE 16.1 mph 27.6 mph N/A   Clear
2:53 PM 73.0 °F 3.9 °F 7% 30.23 in 10.0 mi North 12.7 mph 33.4 mph N/A   Clear
3:53 PM 72.0 °F 3.0 °F 7% 30.25 in 10.0 mi North 12.7 mph 24.2 mph N/A   Clear
4:53 PM 69.1 °F 7.0 °F 9% 30.26 in 10.0 mi NNE 12.7 mph 25.3 mph N/A   Clear
5:53 PM 68.0 °F 8.1 °F 10% 30.28 in 10.0 mi NNE 5.8 mph - N/A   Clear
6:53 PM 66.0 °F 9.0 °F 11% 30.31 in 10.0 mi ESE 6.9 mph - N/A   Clear
7:53 PM 64.9 °F 10.0 °F 12% 30.32 in 10.0 mi ENE 5.8 mph - N/A   Clear
8:53 PM 61.0 °F 12.9 °F 15% 30.33 in 10.0 mi Calm Calm - N/A   Clear
9:53 PM 60.1 °F 12.9 °F 16% 30.34 in 10.0 mi South 3.5 mph - N/A   Clear
10:53 PM 54.0 °F 18.0 °F 24% 30.35 in 10.0 mi SE 3.5 mph - N/A   Clear
11:53 PM 54.0 °F 16.0 °F 22% 30.35 in 10.0 mi SSE 3.5 mph - N/A   Clear